N3HBJ Weather Reports


Display with metric or nautical units.
time (UTC)temp
F
wind
direction
speed
MPH
gust
MPH
rain 1hr
in
rain 24hr
in
rain mn
in
humidity
%
barometer
mb
20260503031759 39 115 0.0 0.0 0.00 0.02 0.01 70 1014.7
20260503031253 39 115 0.0 0.0 0.00 0.02 0.01 70 1014.8
20260503030747 39 115 0.0 0.0 0.00 0.02 0.01 72 1014.8
20260503030247 39 115 0.0 0.0 0.00 0.02 0.01 71 1014.9
20260503025747 39 115 0.0 0.0 0.00 0.02 0.01 71 1014.8
20260503025244 39 115 0.0 0.0 0.00 0.02 0.01 69 1014.8
20260503024745 39 115 0.0 0.0 0.00 0.02 0.01 69 1014.8
20260503024254 39 115 0.0 0.0 0.00 0.02 0.01 71 1014.9
20260503024001 39 115 0.0 2.0 0.00 0.02 0.01 70 1014.9
20260503023236 39 115 0.0 2.0 0.00 0.02 0.01 70 1015.0
20260503022735 39 113 0.0 0.0 0.00 0.03 0.01 73 1015.0
20260503022235 39 113 0.0 0.0 0.00 0.04 0.01 74 1015.0
20260503021734 39 113 0.0 0.0 0.00 0.05 0.01 72 1015.1
20260503021450 39 113 0.0 0.0 0.00 0.06 0.01 74 1015.1
20260503020734 39 113 0.0 0.0 0.00 0.07 0.01 74 1015.0
20260503020233 39 113 0.0 0.0 0.00 0.09 0.01 74 1015.0
20260503015733 39 113 0.0 0.0 0.00 0.11 0.01 76 1014.9
20260503015233 39 186 0.0 0.0 0.00 0.13 0.01 74 1014.9
20260503014735 39 186 0.0 0.0 0.00 0.14 0.01 75 1014.8
20260503014233 39 186 0.0 0.0 0.00 0.15 0.01 76 1014.7
20260503013733 39 186 0.0 0.0 0.00 0.16 0.01 78 1014.7
20260503013233 39 186 0.0 0.0 0.00 0.16 0.01 78 1014.7
20260503012734 39 186 0.0 0.0 0.00 0.16 0.01 76 1014.7
20260503012236 39 186 0.0 0.0 0.00 0.16 0.01 74 1014.7
20260503011733 39 186 0.0 0.0 0.00 0.16 0.01 75 1014.7
20260503011233 39 186 0.0 1.0 0.00 0.16 0.01 75 1014.6
20260503010745 39 186 0.0 9.0 0.00 0.16 0.01 77 1014.6
20260503010231 39 200 1.0 9.0 0.00 0.16 0.01 75 1014.5
20260503005730 39 149 0.0 3.0 0.00 0.16 0.01 78 1014.5
20260503005228 39 277 0.0 2.0 0.00 0.16 0.01 80 1014.5
20260503004728 38 211 0.0 1.0 0.00 0.16 0.01 85 1014.5
20260503004227 38 229 0.0 0.0 0.00 0.16 0.01 87 1014.5
20260503003726 39 229 0.0 0.0 0.01 0.16 0.01 87 1014.4
20260503003224 39 229 0.0 0.0 0.01 0.16 0.01 86 1014.3
20260503002727 39 229 0.0 0.0 0.01 0.17 0.01 86 1014.2
20260503002224 39 229 0.0 0.0 0.01 0.17 0.01 85 1014.1
20260503001949 39 229 0.0 0.0 0.01 0.17 0.01 85 1014.1
20260503001447 39 229 0.0 0.0 0.01 0.17 0.01 84 1014.1
20260503000727 39 229 0.0 0.0 0.01 0.17 0.01 83 1014.1
20260503000226 39 229 0.0 0.0 0.01 0.17 0.01 82 1014.1
20260502235724 39 229 0.0 0.0 0.01 0.17 0.01 82 1014.1
20260502235223 40 229 0.0 0.0 0.01 0.17 0.01 81 1014.0
20260502234722 40 229 0.0 0.0 0.01 0.17 0.01 79 1014.0
20260502234710 40 230 0.0 4.0 0.01 0.18 0.01 77 1014.0
20260502233721 41 226 1.0 9.0 0.00 0.17 0.00 76 1014.1
20260502233222 41 224 1.0 9.0 0.00 0.17 0.00 74 1014.1
20260502232723 42 135 0.0 0.0 0.00 0.17 0.00 73 1013.9
20260502232439 42 135 0.0 2.0 0.00 0.17 0.00 71 1013.9
20260502231722 42 135 0.0 2.0 0.00 0.17 0.00 72 1013.9
20260502231222 42 135 0.0 8.0 0.00 0.18 0.00 71 1013.9
20260502230722 42 144 1.0 8.0 0.00 0.18 0.00 71 1013.8
20260502230444 42 182 1.0 5.0 0.00 0.18 0.00 69 1013.9
20260502225721 42 159 0.0 4.0 0.00 0.18 0.00 69 1013.7
20260502225220 42 124 0.0 2.0 0.00 0.18 0.00 69 1013.8
20260502224714 43 124 0.0 2.0 0.00 0.18 0.00 69 1013.8
20260502224430 43 215 0.0 4.0 0.00 0.18 0.00 70 1013.8
20260502223710 43 160 1.0 4.0 0.00 0.18 0.00 70 1013.7
20260502223210 43 159 1.0 6.0 0.00 0.18 0.00 70 1013.7
20260502222710 43 152 1.0 6.0 0.00 0.18 0.00 70 1013.7
20260502222209 43 119 1.0 4.0 0.00 0.18 0.00 71 1013.6
20260502221712 43 163 1.0 6.0 0.00 0.18 0.00 71 1013.7
20260502221210 43 93 1.0 6.0 0.00 0.19 0.00 70 1013.7
20260502220710 43 196 1.0 9.0 0.00 0.19 0.00 69 1013.7
20260502220210 43 157 1.0 9.0 0.00 0.19 0.00 69 1013.7
20260502215709 43 151 0.0 7.0 0.00 0.19 0.00 69 1013.7
20260502215210 43 186 0.0 7.0 0.00 0.19 0.00 70 1013.6
20260502214937 43 139 1.0 7.0 0.00 0.19 0.00 68 1013.6
20260502214209 43 147 1.0 9.0 0.00 0.20 0.00 68 1013.6
20260502213709 44 123 0.0 9.0 0.00 0.20 0.00 69 1013.5
20260502213212 44 151 0.0 0.0 0.00 0.20 0.00 69 1013.5
20260502212710 44 150 0.0 4.0 0.00 0.20 0.00 69 1013.5
20260502212432 44 145 0.0 4.0 0.00 0.20 0.00 68 1013.4
20260502211722 44 162 0.0 4.0 0.00 0.20 0.00 68 1013.4
20260502211212 44 29 0.0 3.0 0.00 0.20 0.00 70 1013.3
20260502210710 43 28 0.0 3.0 0.00 0.20 0.00 69 1013.4
20260502210222 43 175 0.0 2.0 0.00 0.20 0.00 70 1013.4
20260502205707 43 261 0.0 1.0 0.00 0.20 0.00 71 1013.5
20260502205206 43 177 0.0 0.0 0.00 0.20 0.00 72 1013.5
20260502204704 43 167 0.0 4.0 0.00 0.20 0.00 72 1013.5
20260502204205 42 165 0.0 4.0 0.00 0.20 0.00 73 1013.5
20260502203704 42 155 1.0 7.0 0.00 0.20 0.00 72 1013.6
20260502203203 42 156 1.0 7.0 0.00 0.21 0.00 72 1013.6
20260502202659 43 154 0.0 3.0 0.00 0.21 0.00 73 1013.6
20260502202200 43 144 0.0 3.0 0.00 0.21 0.00 73 1013.6
20260502201929 43 189 0.0 3.0 0.00 0.21 0.00 73 1013.7
20260502201200 43 190 0.0 3.0 0.00 0.21 0.00 73 1013.7
20260502200657 43 150 0.0 4.0 0.00 0.21 0.00 73 1013.7
20260502200158 43 254 0.0 4.0 0.00 0.21 0.00 71 1013.6
20260502195701 43 169 0.0 4.0 0.00 0.21 0.00 70 1013.6
20260502195200 43 204 0.0 4.0 0.00 0.21 0.00 70 1013.7
20260502194657 43 287 0.0 4.0 0.00 0.21 0.00 70 1013.7
20260502194153 43 212 0.0 3.0 0.00 0.21 0.00 71 1013.8
20260502193647 43 287 0.0 2.0 0.00 0.21 0.00 71 1013.9
20260502193141 43 287 0.0 5.0 0.00 0.21 0.00 71 1013.8
20260502192635 43 191 1.0 5.0 0.00 0.21 0.00 72 1014.0
20260502192136 43 286 1.0 6.0 0.00 0.21 0.00 71 1014.0
20260502191634 43 269 1.0 6.0 0.00 0.22 0.00 71 1014.1
20260502191132 44 181 1.0 6.0 0.00 0.22 0.00 70 1014.1
20260502190853 44 216 1.0 6.0 0.00 0.22 0.00 68 1014.1
20260502190134 44 188 1.0 5.0 0.00 0.22 0.00 68 1014.2
20260502185630 44 286 1.0 6.0 0.00 0.22 0.00 67 1014.2
20260502185127 44 236 1.0 6.0 0.00 0.22 0.00 68 1014.1
20260502184627 44 198 1.0 9.0 0.00 0.22 0.00 67 1014.2
20260502184127 44 281 2.0 12.0 0.00 0.22 0.00 66 1014.2
20260502183629 44 133 1.0 12.0 0.00 0.22 0.00 68 1014.2
20260502183128 45 140 0.0 4.0 0.00 0.22 0.00 65 1014.1
20260502182626 45 133 1.0 5.0 0.00 0.22 0.00 62 1014.1
20260502182124 45 92 1.0 5.0 0.00 0.22 0.00 61 1014.0
20260502181624 45 172 0.0 3.0 0.00 0.22 0.00 62 1014.0
20260502181339 45 174 1.0 7.0 0.00 0.22 0.00 61 1014.0
20260502180624 46 105 1.0 7.0 0.00 0.22 0.00 60 1013.9
20260502180121 46 76 1.0 8.0 0.00 0.22 0.00 60 1014.0
20260502170132 45 127 1.0 6.0 0.00 0.22 0.00 58 1014.0
20260502164117 45 185 1.0 8.0 0.00 0.22 0.00 63 1014.2
20260502163618 45 185 1.0 8.0 0.00 0.22 0.00 60 1014.3
20260502163117 45 157 1.0 6.0 0.00 0.22 0.00 61 1014.3
20260502162620 45 165 1.0 6.0 0.00 0.22 0.00 59 1014.3
20260502162120 45 311 1.0 5.0 0.00 0.22 0.00 61 1014.3
20260502161618 45 209 0.0 4.0 0.00 0.22 0.00 63 1014.4
20260502161117 44 274 0.0 3.0 0.00 0.22 0.00 62 1014.3
20260502160844 44 272 0.0 3.0 0.00 0.22 0.00 64 1014.4
20260502160120 44 151 0.0 4.0 0.00 0.22 0.00 64 1014.3
20260502152337 43 154 1.0 5.0 0.00 0.22 0.00 64 1014.5
20260502151617 43 143 1.0 5.0 0.00 0.22 0.00 63 1014.5
20260502151109 43 142 1.0 7.0 0.00 0.22 0.00 62 1014.6
20260502150828 43 163 0.0 7.0 0.00 0.22 0.00 60 1014.5
20260502150119 43 259 0.0 3.0 0.00 0.22 0.00 61 1014.5
20260502140105 43 148 1.0 7.0 0.00 0.22 0.00 63 1014.4
20260502123537 38 112 0.0 4.0 0.00 0.22 0.00 82 1015.2
20260502123033 38 152 0.0 4.0 0.00 0.22 0.00 83 1015.3
20260502122530 38 82 1.0 6.0 0.00 0.22 0.00 85 1015.3
20260502122028 38 82 1.0 6.0 0.00 0.22 0.00 85 1015.3
20260502121530 37 153 1.0 5.0 0.00 0.22 0.00 86 1015.3
20260502121521 37 149 1.0 5.0 0.00 0.22 0.00 86 1015.4
20260502120530 37 89 1.0 7.0 0.00 0.22 0.00 87 1015.4
20260502115525 37 40 1.0 7.0 0.00 0.22 0.00 89 1015.4
20260502115026 37 63 1.0 6.0 0.00 0.22 0.00 91 1015.4
20260502114525 36 107 1.0 6.0 0.00 0.22 0.00 93 1015.4
20260502114022 36 110 1.0 6.0 0.00 0.22 0.00 93 1015.3
20260502113514 35 92 0.0 4.0 0.00 0.22 0.00 93 1015.3
20260502113008 35 118 0.0 2.0 0.00 0.22 0.00 94 1015.3
20260502112502 35 103 0.0 3.0 0.00 0.22 0.00 93 1015.2
20260502111959 34 103 0.0 3.0 0.00 0.22 0.00 93 1015.2
20260502111449 34 136 0.0 2.0 0.00 0.22 0.00 93 1015.3
20260502110945 33 136 0.0 2.0 0.00 0.22 0.00 93 1015.2
20260502110437 33 227 0.0 0.0 0.00 0.22 0.00 93 1015.2
20260502105934 33 227 0.0 0.0 0.00 0.22 0.00 93 1015.2
20260502105435 33 227 0.0 0.0 0.00 0.22 0.00 93 1015.2
20260502104933 33 227 0.0 0.0 0.00 0.22 0.00 92 1015.2
20260502104653 33 227 0.0 0.0 0.00 0.22 0.00 92 1015.1
20260502104151 33 227 0.0 0.0 0.00 0.22 0.00 92 1015.1
20260502103433 33 227 0.0 0.0 0.00 0.22 0.00 92 1015.2
20260502102930 33 227 0.0 0.0 0.00 0.22 0.00 92 1015.3
20260502102428 33 227 0.0 0.0 0.00 0.22 0.00 92 1015.3
20260502101934 33 227 0.0 0.0 0.00 0.22 0.00 92 1015.3
20260502101427 33 227 0.0 0.0 0.00 0.22 0.00 92 1015.2
20260502101402 33 227 0.0 0.0 0.00 0.22 0.00 92 1015.2
20260502100427 34 227 0.0 0.0 0.00 0.22 0.00 93 1015.1
20260502090918 34 227 0.0 0.0 0.00 0.22 0.00 91 1014.4
20260502090641 34 227 0.0 0.0 0.00 0.22 0.00 91 1014.4
20260502071407 35 230 0.0 0.0 0.00 0.22 0.00 91 1014.0
20260502070906 35 230 0.0 0.0 0.00 0.22 0.00 90 1014.0
20260502070404 35 230 0.0 0.0 0.00 0.22 0.00 90 1013.9
20260502065904 36 230 0.0 0.0 0.00 0.22 0.00 89 1013.9
20260502065403 36 230 0.0 0.0 0.00 0.22 0.00 89 1014.0
20260502064904 36 230 0.0 0.0 0.00 0.22 0.00 89 1013.9
20260502064404 36 230 0.0 0.0 0.00 0.22 0.00 89 1013.9
20260502063901 37 230 0.0 0.0 0.00 0.22 0.00 88 1013.8
20260502063401 37 230 0.0 0.0 0.00 0.22 0.00 88 1013.9
20260502062900 37 230 0.0 0.0 0.00 0.22 0.00 88 1013.9
20260502062351 38 230 0.0 0.0 0.00 0.22 0.00 88 1013.9
20260502061850 38 230 0.0 0.0 0.00 0.22 0.00 88 1014.0
20260502061349 38 230 0.0 0.0 0.00 0.22 0.00 88 1014.0
20260502060849 38 230 0.0 0.0 0.00 0.22 0.00 88 1014.0
20260502060350 39 230 0.0 0.0 0.00 0.22 0.00 87 1014.0
20260502055848 39 230 0.0 0.0 0.00 0.22 0.00 87 1014.0
20260502055347 39 230 0.0 0.0 0.00 0.22 0.00 86 1014.0
20260502055107 39 230 0.0 0.0 0.00 0.22 0.00 86 1014.0
20260502054346 39 230 0.0 0.0 0.00 0.22 0.00 86 1014.1
20260502053843 39 230 0.0 0.0 0.00 0.22 0.00 86 1014.1
20260502053344 39 230 0.0 2.0 0.00 0.22 0.00 86 1014.1
20260502052841 39 230 0.0 2.0 0.00 0.22 0.00 86 1014.0
20260502052341 39 240 0.0 0.0 0.00 0.22 0.00 86 1014.0
20260502051845 39 240 0.0 5.0 0.00 0.22 0.00 86 1014.0
20260502051342 39 240 0.0 5.0 0.00 0.22 0.00 86 1013.9
20260502050853 40 286 1.0 5.0 0.00 0.22 0.00 86 1014.0
20260502050349 40 189 0.0 3.0 0.00 0.22 0.00 87 1014.0
20260502045837 40 231 0.0 2.0 0.00 0.22 0.00 87 1013.9
20260502045336 40 271 0.0 5.0 0.00 0.22 0.00 88 1014.0
20260502044837 40 227 1.0 5.0 0.01 0.22 0.00 88 1014.0
20260502044333 40 277 1.0 4.0 0.01 0.22 0.00 88 1013.8
20260502044258 40 267 1.0 7.0 0.01 0.22 0.00 88 1013.6
20260502044251 41 232 1.0 7.0 0.01 0.22 0.00 89 1013.7
20260502042828 41 203 0.0 4.0 0.01 0.22 0.00 89 1013.5
20260502042327 41 211 0.0 4.0 0.01 0.22 0.00 89 1013.4
20260502041827 41 205 0.0 3.0 0.01 0.22 0.00 89 1013.4
20260502041328 41 193 0.0 3.0 0.01 0.22 0.00 89 1013.3
20260502040828 42 212 0.0 3.0 0.01 0.22 0.00 89 1013.3
20260502040340 42 220 0.0 4.0 0.01 0.22 0.00 89 1013.0
20260502035825 42 190 0.0 4.0 0.01 0.22 0.22 89 1013.0
20260502035326 42 225 0.0 4.0 0.01 0.22 0.22 90 1012.9
20260502034824 42 286 0.0 3.0 0.00 0.21 0.21 90 1012.9
20260502034321 42 223 0.0 4.0 0.00 0.21 0.21 90 1012.9
20260502034044 42 211 0.0 4.0 0.00 0.21 0.21 90 1012.9
20260502033537 42 154 0.0 4.0 0.01 0.21 0.21 90 1012.9
20260502033528 42 281 0.0 0.0 0.00 0.21 0.21 90 1012.9
20260502032317 43 154 1.0 5.0 0.02 0.21 0.21 90 1012.8